[[{"header":{"parameterUnit":"m.s-1","parameterCategory":1,"la1":30.2991,"la2":30.254,"lo1":-89.0895,"lo2":-89.0444,"dy":0.0017,"dx":0.0017,"nx":28,"ny":28,"refTime":"2025-08-16T03:00:00:Z","depth":0,"parameterNumber":2,"parameterNumberName":"U-component_of_WINDS"},"data":[0,0,0,0,0,0,0,0,0,0,0,0,0,0,0,0,0,0,0,0,0,0,0,0,0,0,0,0,0,0,0,0,0,0,0,0,0,0,0,0,0,0,0,0,0,0,0,0,0,0,0,0,0,0,0,0,0,0,-0.2122,-0.2122,0,-0.2077,-0.2077,-0.2076,-0.2091,-0.2092,-0.2093,-0.2094,-0.2048,-0.2046,-0.2044,0,0,0,0,0,0,0,0,0,0,0,0,0,-0.2222,-0.222,-0.2122,-0.2122,-0.2121,-0.2077,-0.2077,-0.2076,-0.2091,-0.2092,-0.2093,-0.2094,-0.2049,-0.2046,-0.2044,0,0,0,0,0,0,0,0,0,0,0,0,0,-0.2178,-0.2219,-0.2122,-0.2123,-0.2123,-0.2078,-0.2077,-0.2076,-0.209,-0.2092,-0.2093,-0.2095,-0.205,-0.2047,-0.2043,-0.1995,0,0,-0.2034,-0.2032,0,0,0,0,0,0,0,0,-0.218,-0.2174,-0.2124,-0.2123,-0.2123,-0.2091,-0.2095,-0.2049,-0.209,-0.2103,-0.2094,-0.2095,-0.2061,-0.2057,-0.2046,-0.1993,-0.1991,-0.2033,-0.2032,-0.203,-0.2029,0,0,0,0,0,0,0,-0.2183,-0.2176,-0.2105,-0.2123,-0.2122,-0.2126,-0.2121,-0.2086,-0.2074,-0.2102,-0.2103,-0.2097,-0.2061,-0.2049,-0.2045,-0.199,-0.2034,-0.2031,-0.2029,-0.2028,-0.1896,-0.1894,0,0,0,0,0,0,-0.2187,-0.2179,-0.2106,-0.2103,-0.2156,-0.2123,-0.2118,-0.21,-0.2075,-0.2072,-0.2096,-0.2098,-0.2053,-0.2048,-0.2043,-0.1985,-0.203,-0.2027,-0.2025,-0.1897,-0.1895,-0.1894,0,0,0,0,0,0,-0.2189,-0.218,-0.2108,-0.2141,-0.2132,-0.212,-0.2099,-0.2098,-0.2085,-0.207,-0.2069,-0.2085,-0.2054,-0.2048,-0.2007,-0.1983,-0.2026,-0.2023,-0.1899,-0.1897,-0.1895,-0.1867,0,0,0,0,0,0,-0.2192,-0.2181,-0.2162,-0.2141,-0.213,-0.2072,-0.2098,-0.2096,-0.208,-0.2082,-0.206,-0.2058,-0.2055,-0.2011,-0.2004,-0.198,-0.202,-0.1901,-0.1898,-0.1895,-0.187,-0.1864,-0.1859,0,0,0,0,0,-0.2195,-0.2156,-0.2161,-0.2152,-0.2107,-0.207,-0.2065,-0.2062,-0.2078,-0.2059,-0.205,-0.2058,-0.1987,-0.2007,-0.1999,-0.1973,-0.1903,-0.1899,-0.1896,-0.1873,-0.1865,-0.1859,0,0,0,0,0,0,-0.2175,-0.2153,-0.2158,-0.2111,-0.2092,-0.2073,-0.2049,-0.2055,-0.2031,-0.2034,-0.2033,-0.2027,-0.1985,-0.1976,-0.1998,-0.1925,-0.1947,-0.1942,-0.1933,-0.1926,-0.1921,-0.1923,-0.2018,0,0,0,0,0,-0.2165,-0.2137,-0.212,-0.208,-0.207,-0.2061,-0.2045,-0.2045,-0.2026,-0.2018,-0.2006,-0.1987,-0.196,-0.1943,-0.1918,-0.1869,-0.1865,-0.1848,-0.1842,-0.1838,-0.1833,-0.1807,-0.1799,-0.1882,-0.1882,-0.1882,0,0,-0.2144,-0.2129,-0.2111,-0.2075,-0.2061,-0.2032,-0.2054,-0.2023,-0.2002,-0.2013,-0.1974,-0.1964,-0.1943,-0.1899,-0.1878,-0.1889,-0.1809,-0.1833,-0.183,-0.1827,-0.1802,-0.1794,-0.1787,-0.188,-0.188,-0.188,0,0,-0.209,-0.2076,-0.2041,-0.2027,-0.2005,-0.1999,-0.1991,-0.197,-0.1964,-0.1925,-0.1933,-0.1908,-0.1863,-0.1847,-0.1833,-0.1776,-0.1783,-0.1768,-0.1738,-0.1713,-0.1706,-0.1701,-0.168,-0.1672,-0.1763,-0.1763,-0.1763,0,-0.2067,-0.2024,-0.2023,-0.1991,-0.1975,-0.1985,-0.1949,-0.1935,-0.1906,-0.1895,-0.1908,-0.1851,-0.1837,-0.1789,-0.1775,-0.1764,-0.1754,-0.177,-0.1707,-0.1702,-0.1696,-0.1676,-0.1668,-0.1761,-0.1761,-0.1762,-0.1762,0,-0.1996,-0.1966,-0.1941,-0.1912,-0.1894,-0.1861,-0.1855,-0.1836,-0.1838,-0.1832,-0.1792,-0.1776,-0.1748,-0.1737,-0.1738,-0.1689,-0.1696,-0.1708,-0.173,-0.1686,-0.1668,-0.166,-0.1759,-0.1759,-0.176,-0.176,0,0,-0.1927,-0.1899,-0.189,-0.1877,-0.1854,-0.1831,-0.1799,-0.1771,-0.1755,-0.1736,-0.1708,-0.167,-0.1681,-0.1665,-0.1666,-0.1643,-0.1599,-0.1658,-0.1658,-0.1647,-0.1543,-0.1534,-0.1525,-0.1604,-0.1602,-0.1601,-0.1545,0,-0.1872,-0.1814,-0.1813,-0.176,-0.1732,-0.1742,-0.1713,-0.1696,-0.169,-0.1666,-0.1659,-0.1631,-0.1648,-0.1639,-0.1617,-0.1608,-0.1577,-0.1613,-0.1578,-0.1577,-0.1582,-0.1515,-0.1505,-0.1452,-0.1537,-0.1536,-0.1535,0,-0.1799,-0.1776,-0.1721,-0.1702,-0.1691,-0.1665,-0.164,-0.1617,-0.1598,-0.1595,-0.1578,-0.1582,-0.1549,-0.1573,-0.1528,-0.1552,-0.1538,-0.1532,-0.153,-0.1526,-0.1553,-0.1508,-0.1435,-0.1427,-0.1524,-0.1525,-0.1526,0,-0.1753,-0.1709,-0.1671,-0.166,-0.1637,-0.1619,-0.1609,-0.1591,-0.1575,-0.1554,-0.1543,-0.1518,-0.1504,-0.1485,-0.1482,-0.15,-0.1437,-0.1461,-0.1434,-0.1434,-0.1419,-0.142,-0.1342,-0.1411,-0.1411,-0.1412,-0.1412,0,-0.1691,-0.1656,-0.165,-0.1626,-0.1588,-0.1587,-0.155,-0.1541,-0.1526,-0.15,-0.1508,-0.1484,-0.1482,-0.1458,-0.1455,-0.1419,-0.1412,-0.1409,-0.1409,-0.1408,-0.1408,-0.1398,-0.1401,-0.1409,-0.141,-0.141,-0.1411,0,-0.1633,-0.1627,-0.1585,-0.1568,-0.1563,-0.1535,-0.152,-0.1498,-0.1492,-0.146,-0.1453,-0.1444,-0.1416,-0.1412,-0.1379,-0.1377,-0.1333,-0.1337,-0.1339,-0.1339,-0.1312,-0.1314,-0.1224,-0.1212,-0.129,-0.1289,-0.1289,0,-0.1592,-0.1566,-0.1546,-0.1529,-0.1518,-0.1492,-0.1475,-0.1474,-0.1457,-0.1434,-0.1414,-0.1387,-0.1365,-0.132,-0.1311,-0.1286,-0.1289,-0.1259,-0.1285,-0.1285,-0.1288,-0.1289,-0.1287,-0.1254,-0.1253,-0.1252,-0.1252,0,-0.1522,-0.152,-0.1496,-0.1471,-0.1452,-0.1432,-0.1413,-0.14,-0.1396,-0.1377,-0.1348,-0.1331,-0.1298,-0.1271,-0.1246,-0.1236,-0.1243,-0.1244,-0.1236,-0.1234,-0.1237,-0.1235,-0.1325,-0.1246,-0.1246,-0.1247,-0.1247,-0.1247,-0.1471,-0.1448,-0.143,-0.1403,-0.139,-0.1372,-0.135,-0.1342,-0.1318,-0.1291,-0.1292,-0.1261,-0.1244,-0.1211,-0.12,-0.1176,-0.1186,-0.1174,-0.1171,-0.1168,-0.1166,-0.1241,-0.1172,-0.1172,-0.1172,-0.1172,-0.1172,0,-0.14,-0.1389,-0.1364,-0.1338,-0.1317,-0.1326,-0.1307,-0.1289,-0.1261,-0.1244,-0.1223,-0.119,-0.1164,-0.1154,-0.1129,-0.1111,-0.1114,-0.1105,-0.1105,-0.1103,-0.1158,-0.1167,-0.1103,-0.1103,-0.1103,-0.1103,-0.1103,-0.1103,-0.136,-0.1322,-0.1319,-0.1274,-0.1264,-0.1233,-0.1221,-0.1206,-0.1193,-0.1156,-0.1134,-0.1128,-0.1114,-0.1088,-0.1065,-0.1062,-0.1053,-0.1042,-0.1041,-0.1092,-0.1099,-0.1106,-0.1114,-0.104,-0.104,-0.0987,-0.0987,-0.0986]},{"header":{"parameterUnit":"m.s-1","parameterCategory":1,"la1":30.2991,"la2":30.254,"lo1":-89.0895,"lo2":-89.0444,"dy":0.0017,"dx":0.0017,"nx":28,"ny":28,"refTime":"2025-08-16T03:00:00:Z","depth":0,"parameterNumber":3,"parameterNumberName":"V-component_of_WINDS"},"data":[0,0,0,0,0,0,0,0,0,0,0,0,0,0,0,0,0,0,0,0,0,0,0,0,0,0,0,0,0,0,0,0,0,0,0,0,0,0,0,0,0,0,0,0,0,0,0,0,0,0,0,0,0,0,0,0,0,0,0.4105,0.4107,0,0.434,0.4343,0.4345,0.4395,0.4394,0.4392,0.439,0.4634,0.4642,0.465,0,0,0,0,0,0,0,0,0,0,0,0,0,0.3697,0.3704,0.4105,0.4107,0.411,0.434,0.4343,0.4346,0.4396,0.4393,0.4391,0.4389,0.4631,0.4641,0.4651,0,0,0,0,0,0,0,0,0,0,0,0,0,0.3897,0.3706,0.4104,0.4163,0.417,0.4339,0.4343,0.4347,0.4396,0.4393,0.4391,0.4388,0.4628,0.464,0.4652,0.478,0,0,0.4689,0.4694,0,0,0,0,0,0,0,0,0.3886,0.3912,0.4151,0.4159,0.4168,0.4336,0.4288,0.4492,0.4397,0.431,0.439,0.4387,0.4537,0.4556,0.4606,0.4791,0.4802,0.469,0.4698,0.4703,0.4706,0,0,0,0,0,0,0,0.3872,0.3902,0.4198,0.4155,0.4165,0.4177,0.4202,0.4327,0.4436,0.4318,0.4322,0.4349,0.4541,0.4595,0.4613,0.4805,0.469,0.4701,0.4708,0.4713,0.51,0.5102,0,0,0,0,0,0,0.3847,0.389,0.419,0.4205,0.4017,0.4186,0.4215,0.4284,0.4434,0.4455,0.4351,0.435,0.4575,0.4598,0.4621,0.4777,0.4703,0.4714,0.4721,0.5097,0.51,0.5103,0,0,0,0,0,0,0.3838,0.3874,0.4181,0.4049,0.4089,0.4196,0.4274,0.429,0.4344,0.4459,0.4479,0.4386,0.4574,0.4604,0.4738,0.4786,0.472,0.4731,0.5093,0.5098,0.5102,0.5091,0,0,0,0,0,0,0.3826,0.387,0.3921,0.4049,0.4096,0.4295,0.4277,0.4297,0.4365,0.4366,0.4497,0.4517,0.4574,0.472,0.475,0.4802,0.474,0.5089,0.5095,0.51,0.5087,0.5094,0.51,0,0,0,0,0,0.3812,0.391,0.3923,0.3959,0.4161,0.4297,0.4324,0.4387,0.4368,0.4419,0.4492,0.4513,0.4776,0.4733,0.4768,0.4824,0.5087,0.5094,0.51,0.5084,0.5093,0.51,0,0,0,0,0,0,0.3787,0.3928,0.3944,0.4087,0.4179,0.4305,0.4372,0.4395,0.4496,0.4493,0.4568,0.4597,0.4725,0.4788,0.4738,0.4952,0.493,0.4944,0.4906,0.4915,0.4921,0.4903,0.475,0,0,0,0,0,0.3798,0.3896,0.4015,0.4129,0.4175,0.4265,0.4327,0.4367,0.4466,0.4506,0.4589,0.4685,0.4788,0.4855,0.4958,0.5096,0.5123,0.5151,0.5157,0.5162,0.5173,0.5246,0.5258,0.5125,0.5125,0.5125,0,0,0.3822,0.3911,0.397,0.4126,0.4203,0.4302,0.4298,0.4405,0.4478,0.4523,0.4653,0.4717,0.4828,0.4963,0.5027,0.5019,0.5215,0.517,0.5173,0.5182,0.5254,0.5266,0.5277,0.513,0.5129,0.5128,0,0,0.3916,0.3995,0.4096,0.4171,0.4285,0.4344,0.4368,0.4489,0.4532,0.4664,0.4697,0.4786,0.4965,0.504,0.5103,0.5218,0.5239,0.5249,0.5283,0.5353,0.5363,0.5373,0.541,0.5423,0.526,0.526,0.526,0,0.3932,0.4083,0.4146,0.425,0.4316,0.4357,0.4459,0.4529,0.4671,0.4716,0.4704,0.4925,0.5003,0.5154,0.5181,0.5232,0.5259,0.5235,0.5356,0.5367,0.5377,0.5413,0.5428,0.526,0.526,0.526,0.526,0,0.4095,0.4199,0.4267,0.4399,0.4473,0.4576,0.4653,0.472,0.4752,0.4811,0.4941,0.5035,0.5155,0.5194,0.5228,0.5348,0.5339,0.5341,0.5321,0.5388,0.5424,0.5439,0.5261,0.526,0.526,0.526,0,0,0.4184,0.4345,0.4369,0.4427,0.4553,0.4634,0.4736,0.4851,0.4905,0.5001,0.5086,0.5233,0.5234,0.5304,0.5346,0.5408,0.5488,0.5402,0.5406,0.5412,0.5621,0.5617,0.5633,0.5502,0.5505,0.5507,0.561,0,0.4291,0.4474,0.4531,0.4684,0.4778,0.4815,0.4903,0.4989,0.5045,0.5133,0.5195,0.5296,0.5292,0.5333,0.5396,0.5465,0.553,0.5458,0.5581,0.5584,0.555,0.5652,0.565,0.5743,0.5625,0.5628,0.5629,0,0.4443,0.4536,0.4697,0.4805,0.4847,0.4925,0.5032,0.5115,0.5212,0.5248,0.5323,0.5358,0.5464,0.5437,0.5581,0.5531,0.5584,0.5624,0.5629,0.5643,0.561,0.5666,0.5775,0.5788,0.5653,0.5651,0.5649,0,0.4486,0.4653,0.477,0.4819,0.4949,0.5002,0.5059,0.5153,0.5216,0.5309,0.535,0.5455,0.5512,0.5591,0.5653,0.5628,0.579,0.5769,0.5821,0.582,0.5854,0.5851,0.5971,0.5891,0.5891,0.589,0.589,0,0.46,0.4696,0.479,0.4862,0.4969,0.5032,0.5137,0.5196,0.5278,0.536,0.5399,0.5475,0.5553,0.5639,0.5688,0.5797,0.5824,0.5854,0.5866,0.585,0.5846,0.5886,0.588,0.5894,0.5893,0.5893,0.5892,0,0.4668,0.4736,0.4864,0.4975,0.5005,0.5079,0.5173,0.5243,0.5298,0.5401,0.5429,0.5516,0.5619,0.5688,0.582,0.5852,0.597,0.5982,0.5937,0.5943,0.5989,0.5983,0.6138,0.616,0.6067,0.6067,0.6068,0,0.4735,0.481,0.4926,0.4983,0.5039,0.5131,0.5194,0.5257,0.5322,0.5433,0.5488,0.5593,0.5679,0.5841,0.5916,0.6015,0.6028,0.6075,0.6044,0.6023,0.6025,0.6019,0.6025,0.608,0.6081,0.6081,0.6082,0,0.4846,0.4874,0.4963,0.5063,0.5136,0.5218,0.53,0.5344,0.5421,0.5491,0.5595,0.5661,0.5793,0.5895,0.6,0.6058,0.6082,0.6091,0.6108,0.6092,0.6061,0.6075,0.5949,0.6087,0.6087,0.6086,0.6086,0.6086,0.4915,0.498,0.507,0.5167,0.5234,0.5308,0.5377,0.5439,0.5527,0.5638,0.567,0.5776,0.5866,0.6009,0.6068,0.6151,0.6147,0.6172,0.6178,0.6183,0.6181,0.6048,0.6171,0.6171,0.6171,0.6171,0.6171,0,0.5025,0.5083,0.5171,0.5282,0.5357,0.5371,0.5461,0.5522,0.5615,0.5696,0.5779,0.5895,0.5992,0.6072,0.6172,0.6223,0.6236,0.6247,0.6243,0.6255,0.6181,0.6155,0.6234,0.6234,0.6234,0.6234,0.6234,0.6234,0.5091,0.5201,0.5238,0.538,0.5439,0.5542,0.5591,0.5659,0.5723,0.585,0.593,0.5981,0.6061,0.6165,0.6254,0.6275,0.6309,0.6317,0.634,0.6269,0.6261,0.6254,0.623,0.6324,0.6324,0.6407,0.6408,0.6408]}]]